Weather History for KETB - May, 2013

Change the Weather History Date:

Monday, May 20, 2013

  Actual Average Record
Temperature  
Mean Temperature 71 °F -  
Max Temperature 82 °F 69 °F 89 °F (1934)
Min Temperature 60 °F 45 °F 32 °F (1926)
Cooling Degree Days 6    
Growing Degree Days 21 (Base 50)    
Moisture  
Dew Point 54 °F    
Average Humidity 54    
Maximum Humidity 83    
Minimum Humidity 32    
Precipitation  
Precipitation 0.03 in - - ()
Sea Level Pressure  
Sea Level Pressure 29.72 in    
Wind  
Wind Speed 7 mph (South)    
Max Wind Speed 22 mph    
Max Gust Speed 29 mph    
Visibility 10 miles    
Events Rain    
Averages and records for this station are not official NWS values.
T = Trace of Precipitation, MM = Missing Value Source: NWS Daily Summary

Daily Weather History Graph

Daily Weather History Graph

Search for Another Location

Airport or City:

Trip Planner

Search our weather history database for the weather conditions in past years. The results will help you decide how hot, cold, wet, or windy it might be!

Date:

Astronomy

May. 20, 2013 Rise Set
Actual Time 5:22 AM CDT 8:15 PM CDT
Civil Twilight 4:49 AM CDT 8:49 PM CDT
Nautical Twilight 4:06 AM CDT 9:32 PM CDT
Astronomical Twilight 3:17 AM CDT 10:22 PM CDT
Moon 3:15 PM CDT (5/20) 2:26 AM CDT (5/20)
Length of Visible Light 16h 00m
Length of Day
14h 52m
Waxing Gibbous, 75% of the Moon is Illuminated
May 20
Waxing Gibbous
May 24
Full
May 31
Last Quarter
Jun 8
New
Jun 16
First Quarter

Hourly Weather History & Observations

Time (CDT) Temp. Heat Index Dew Point Humidity Pressure Visibility Wind Dir Wind Speed Gust Speed Precip Events Conditions
12:15 AM 66.2 °F - 55.4 °F 68% 29.76 in 10.0 mi SE 5.8 mph - N/A   Clear
12:35 AM 66.2 °F - 55.4 °F 68% 29.75 in 10.0 mi SE 5.8 mph - N/A   Clear
12:55 AM 68.0 °F - 55.4 °F 64% 29.75 in 10.0 mi SE 6.9 mph - N/A   Clear
1:15 AM 68.0 °F - 55.4 °F 64% 29.75 in 10.0 mi SSE 6.9 mph - N/A   Clear
1:35 AM 68.0 °F - 55.4 °F 64% 29.76 in 10.0 mi SSE 4.6 mph - N/A   Clear
1:55 AM 68.0 °F - 55.4 °F 64% 29.76 in 10.0 mi SSE 3.5 mph - N/A   Scattered Clouds
2:15 AM 68.0 °F - 55.4 °F 64% 29.76 in 10.0 mi Calm Calm - N/A   Scattered Clouds
2:35 AM 66.2 °F - 55.4 °F 68% 29.77 in 10.0 mi Calm Calm - N/A   Scattered Clouds
3:15 AM 68.0 °F - 57.2 °F 68% 29.76 in 10.0 mi West 6.9 mph 20.7 mph N/A   Mostly Cloudy
3:35 AM 66.2 °F - 57.2 °F 73% 29.75 in 10.0 mi NNW 3.5 mph - N/A   Mostly Cloudy
3:55 AM 64.4 °F - 55.4 °F 73% 29.75 in 10.0 mi WNW 3.5 mph - N/A   Scattered Clouds
4:35 AM 62.6 °F - 55.4 °F 77% 29.73 in 10.0 mi East 4.6 mph - N/A   Scattered Clouds
4:55 AM 62.6 °F - 55.4 °F 77% 29.72 in 10.0 mi East 4.6 mph - N/A   Clear
5:15 AM 62.6 °F - 55.4 °F 77% 29.73 in 10.0 mi East 3.5 mph - N/A   Scattered Clouds
5:35 AM 62.6 °F - 55.4 °F 77% 29.73 in 10.0 mi East 3.5 mph - N/A   Scattered Clouds
5:55 AM 60.8 °F - 55.4 °F 82% 29.73 in 10.0 mi East 3.5 mph - N/A   Clear
6:15 AM 62.6 °F - 55.4 °F 77% 29.72 in 10.0 mi East 4.6 mph - N/A   Clear
6:35 AM 64.4 °F - 59.0 °F 83% 29.73 in 7.0 mi ESE 4.6 mph - N/A   Clear
7:15 AM 66.2 °F - 59.0 °F 78% 29.75 in 7.0 mi SSE 4.6 mph - N/A   Mostly Cloudy
7:35 AM 68.0 °F - 60.8 °F 78% 29.75 in 7.0 mi SSE 5.8 mph - N/A   Mostly Cloudy
7:55 AM 69.8 °F - 60.8 °F 73% 29.76 in 7.0 mi South 10.4 mph - N/A   Clear
8:15 AM 71.6 °F - 60.8 °F 69% 29.75 in 10.0 mi South 8.1 mph - N/A   Clear
8:35 AM 73.4 °F - 59.0 °F 61% 29.72 in 10.0 mi South 8.1 mph - N/A   Clear
9:15 AM 71.6 °F - 57.2 °F 60% 29.73 in 10.0 mi South 10.4 mph - N/A   Clear
9:35 AM 71.6 °F - 57.2 °F 60% 29.73 in 10.0 mi South 9.2 mph - N/A   Mostly Cloudy
9:55 AM 73.4 °F - 59.0 °F 61% 29.72 in 10.0 mi South 6.9 mph - N/A   Scattered Clouds
10:35 AM 77.0 °F - 57.2 °F 50% 29.75 in 10.0 mi SSW 15.0 mph 18.4 mph N/A   Clear
10:55 AM 77.0 °F - 55.4 °F 47% 29.75 in 10.0 mi SSW 15.0 mph 24.2 mph N/A   Scattered Clouds
11:15 AM 77.0 °F - 53.6 °F 44% 29.75 in 10.0 mi SSW 15.0 mph 28.8 mph N/A   Scattered Clouds
11:35 AM 77.0 °F - 53.6 °F 44% 29.75 in 10.0 mi SW 18.4 mph 21.9 mph N/A   Clear
11:55 AM 78.8 °F - 53.6 °F 42% 29.75 in 10.0 mi SW 13.8 mph 20.7 mph N/A   Scattered Clouds
12:15 PM 77.0 °F - 53.6 °F 44% 29.75 in 10.0 mi SW 13.8 mph 19.6 mph N/A   Scattered Clouds
12:35 PM 77.0 °F - 53.6 °F 44% 29.74 in 10.0 mi SSW 9.2 mph - N/A   Clear
1:15 PM 78.8 °F - 50.0 °F 36% 29.73 in 10.0 mi SSW 16.1 mph 24.2 mph N/A   Clear
1:55 PM 80.6 °F - 50.0 °F 34% 29.72 in 10.0 mi SSE 11.5 mph 20.7 mph N/A   Clear
2:15 PM 80.6 °F - 51.8 °F 37% 29.72 in 10.0 mi South 12.7 mph 18.4 mph N/A   Clear
2:35 PM 80.6 °F 80.5 °F 55.4 °F 42% 29.71 in 10.0 mi SSW 10.4 mph 18.4 mph N/A   Clear
2:55 PM 82.4 °F - 51.8 °F 35% 29.71 in 10.0 mi SSW 15.0 mph 21.9 mph N/A   Clear
3:15 PM 82.4 °F - 51.8 °F 35% 29.71 in 10.0 mi SSW 13.8 mph 24.2 mph N/A   Clear
3:35 PM 82.4 °F - 51.8 °F 35% 29.71 in 10.0 mi SW 21.9 mph 26.5 mph N/A   Clear
3:55 PM 82.4 °F - 50.0 °F 32% 29.71 in 10.0 mi SW 13.8 mph 26.5 mph N/A   Clear
4:15 PM 80.6 °F - 51.8 °F 37% 29.71 in 10.0 mi SW 13.8 mph 28.8 mph N/A   Clear
4:35 PM 80.6 °F - 50.0 °F 34% 29.70 in 10.0 mi SW 12.7 mph 26.5 mph N/A   Clear
4:55 PM 80.6 °F - 48.2 °F 32% 29.70 in 10.0 mi SW 17.3 mph 27.6 mph N/A   Clear
5:15 PM 82.4 °F - 50.0 °F 32% 29.69 in 10.0 mi WSW 13.8 mph 20.7 mph N/A   Clear
5:35 PM 80.6 °F - 50.0 °F 34% 29.69 in 10.0 mi SW 13.8 mph - N/A   Clear
5:55 PM 80.6 °F - 50.0 °F 34% 29.69 in 10.0 mi SSW 13.8 mph 18.4 mph N/A   Clear
6:15 PM 80.6 °F - 50.0 °F 34% 29.69 in 10.0 mi SSW 16.1 mph 21.9 mph N/A   Clear
6:35 PM 80.6 °F - 50.0 °F 34% 29.68 in 10.0 mi SW 10.4 mph - N/A   Clear
6:55 PM 80.6 °F - 51.8 °F 37% 29.69 in 10.0 mi SW 12.7 mph 16.1 mph N/A   Clear
7:15 PM 78.8 °F - 51.8 °F 39% 29.69 in 10.0 mi SSW 6.9 mph - N/A   Clear
7:35 PM 78.8 °F - 53.6 °F 42% 29.69 in 10.0 mi SSW 6.9 mph - N/A   Clear
7:55 PM 77.0 °F - 51.8 °F 41% 29.70 in 10.0 mi SSW 6.9 mph - N/A   Clear
8:15 PM 75.2 °F - 51.8 °F 44% 29.70 in 10.0 mi South 5.8 mph - N/A   Clear
8:35 PM 73.4 °F - 53.6 °F 50% 29.70 in 10.0 mi South 5.8 mph - N/A   Clear
8:55 PM 73.4 °F - 51.8 °F 47% 29.70 in 10.0 mi SSW 4.6 mph - N/A   Clear
9:15 PM 71.6 °F - 51.8 °F 50% 29.70 in 7.0 mi South 3.5 mph - N/A   Clear
9:35 PM 71.6 °F - 51.8 °F 50% 29.71 in 10.0 mi Calm Calm - N/A   Clear
9:55 PM 71.6 °F - 51.8 °F 50% 29.72 in 10.0 mi Calm Calm - N/A   Clear
10:15 PM 68.0 °F - 53.6 °F 60% 29.71 in 10.0 mi Calm Calm - N/A   Clear
10:35 PM 66.2 °F - 55.4 °F 68% 29.70 in 10.0 mi Calm Calm - N/A   Scattered Clouds
11:15 PM 64.4 °F - 55.4 °F 73% 29.68 in 10.0 mi Calm Calm - N/A   Clear
11:55 PM 66.2 °F - 59.0 °F 78% 29.68 in 7.0 mi South 10.4 mph 23.0 mph 0.03 in Rain Light Rain